| time (UTC) | temp F | wind direction | speed MPH | gust MPH | rain 1hr in | rain 24hr in | rain mn in | humidity % | barometer mb |
| 20260507192707 | 53 | 308 | 6.0 | 8.0 | 0.00 | 0.00 | 0.00 | 47 | 1013.3 |
| 20260507192207 | 53 | 293 | 5.0 | 6.0 | 0.00 | 0.00 | 0.00 | 46 | 1013.2 |
| 20260507191707 | 53 | 293 | 5.0 | 6.0 | 0.00 | 0.00 | 0.00 | 46 | 1013.1 |
| 20260507191208 | 53 | 292 | 5.0 | 5.0 | 0.00 | 0.00 | 0.00 | 46 | 1013.1 |
| 20260507190707 | 53 | 292 | 5.0 | 6.0 | 0.00 | 0.00 | 0.00 | 46 | 1013.1 |
| 20260507190207 | 53 | 291 | 4.0 | 5.0 | 0.00 | 0.00 | 0.00 | 46 | 1013.0 |
| 20260507185707 | 53 | 288 | 5.0 | 6.0 | 0.00 | 0.00 | 0.00 | 45 | 1013.0 |
| 20260507185207 | 53 | 287 | 4.0 | 4.0 | 0.00 | 0.00 | 0.00 | 45 | 1012.9 |
| 20260507184707 | 53 | 287 | 4.0 | 4.0 | 0.00 | 0.00 | 0.00 | 45 | 1012.9 |
| 20260507184207 | 54 | 287 | 4.0 | 4.0 | 0.00 | 0.00 | 0.00 | 45 | 1012.8 |
| 20260507183707 | 54 | 287 | 2.0 | 2.0 | 0.00 | 0.00 | 0.00 | 45 | 1012.7 |
| 20260507183207 | 55 | 304 | 1.0 | 2.0 | 0.00 | 0.00 | 0.00 | 44 | 1012.6 |
| 20260507182707 | 55 | 304 | 0.0 | 0.0 | 0.00 | 0.00 | 0.00 | 44 | 1012.4 |
| 20260507182207 | 56 | 304 | 0.0 | 0.0 | 0.00 | 0.00 | 0.00 | 43 | 1012.3 |
| 20260507181707 | 56 | 304 | 0.0 | 1.0 | 0.00 | 0.00 | 0.00 | 42 | 1012.2 |
| 20260507181207 | 57 | 304 | 2.0 | 2.0 | 0.00 | 0.00 | 0.00 | 42 | 1012.1 |
| 20260507180709 | 57 | 304 | 2.0 | 3.0 | 0.00 | 0.00 | 0.00 | 42 | 1012.1 |
| 20260507180207 | 58 | 304 | 3.0 | 3.0 | 0.00 | 0.00 | 0.00 | 42 | 1012.0 |
| 20260507175707 | 58 | 304 | 4.0 | 4.0 | 0.00 | 0.00 | 0.00 | 42 | 1012.0 |
| 20260507175207 | 58 | 304 | 3.0 | 3.0 | 0.00 | 0.00 | 0.00 | 42 | 1012.0 |
| 20260507174707 | 58 | 304 | 3.0 | 3.0 | 0.00 | 0.00 | 0.00 | 42 | 1011.9 |
| 20260507174207 | 59 | 304 | 4.0 | 4.0 | 0.00 | 0.00 | 0.00 | 42 | 1011.9 |
| 20260507173707 | 59 | 303 | 4.0 | 4.0 | 0.00 | 0.00 | 0.00 | 41 | 1011.9 |
| 20260507173207 | 59 | 303 | 5.0 | 6.0 | 0.00 | 0.00 | 0.00 | 41 | 1011.9 |
| 20260507172208 | 59 | 287 | 5.0 | 6.0 | 0.00 | 0.00 | 0.00 | 40 | 1011.8 |
| 20260507171207 | 61 | 297 | 7.0 | 10.0 | 0.00 | 0.00 | 0.00 | 40 | 1011.7 |
| 20260507170707 | 61 | 310 | 7.0 | 8.0 | 0.00 | 0.00 | 0.00 | 40 | 1011.7 |
| 20260507170207 | 61 | 313 | 8.0 | 10.0 | 0.00 | 0.00 | 0.00 | 40 | 1011.6 |
| 20260507165707 | 61 | 301 | 10.0 | 10.0 | 0.00 | 0.00 | 0.00 | 39 | 1011.5 |
| 20260507165208 | 61 | 302 | 8.0 | 10.0 | 0.00 | 0.00 | 0.00 | 39 | 1011.5 |
| 20260507163707 | 61 | 287 | 8.0 | 9.0 | 0.00 | 0.00 | 0.00 | 40 | 1011.4 |
| 20260507163207 | 61 | 309 | 6.0 | 7.0 | 0.00 | 0.00 | 0.00 | 40 | 1011.4 |
| 20260507162707 | 61 | 292 | 7.0 | 8.0 | 0.00 | 0.00 | 0.00 | 40 | 1011.4 |
| 20260507160207 | 63 | 308 | 7.0 | 9.0 | 0.00 | 0.00 | 0.00 | 38 | 1011.3 |
| 20260507155707 | 63 | 301 | 7.0 | 9.0 | 0.00 | 0.00 | 0.00 | 38 | 1011.3 |
| 20260507155207 | 64 | 289 | 6.0 | 10.0 | 0.00 | 0.00 | 0.00 | 38 | 1011.3 |
| 20260507154707 | 64 | 276 | 8.0 | 9.0 | 0.00 | 0.00 | 0.00 | 37 | 1011.3 |
| 20260507154207 | 65 | 288 | 8.0 | 13.0 | 0.00 | 0.00 | 0.00 | 36 | 1011.2 |
| 20260507152212 | 67 | 249 | 6.0 | 8.0 | 0.00 | 0.00 | 0.00 | 34 | 1011.1 |
| 20260507151707 | 67 | 306 | 5.0 | 7.0 | 0.00 | 0.00 | 0.00 | 35 | 1011.1 |
| 20260507150707 | 68 | 299 | 6.0 | 8.0 | 0.00 | 0.00 | 0.00 | 36 | 1011.1 |
| 20260507144707 | 65 | 284 | 6.0 | 7.0 | 0.00 | 0.00 | 0.00 | 36 | 1011.1 |
| 20260507144208 | 65 | 312 | 5.0 | 7.0 | 0.00 | 0.00 | 0.00 | 36 | 1011.1 |
| 20260507143708 | 65 | 290 | 7.0 | 8.0 | 0.00 | 0.00 | 0.00 | 36 | 1011.1 |
| 20260507142207 | 62 | 275 | 9.0 | 11.0 | 0.00 | 0.00 | 0.00 | 38 | 1011.1 |
| 20260507141707 | 62 | 295 | 9.0 | 11.0 | 0.00 | 0.00 | 0.00 | 39 | 1011.2 |
| 20260507141207 | 63 | 302 | 8.0 | 9.0 | 0.00 | 0.00 | 0.00 | 41 | 1011.3 |
| 20260507140707 | 63 | 276 | 9.0 | 11.0 | 0.00 | 0.00 | 0.00 | 38 | 1011.3 |
| 20260507135707 | 65 | 289 | 10.0 | 13.0 | 0.00 | 0.00 | 0.00 | 36 | 1011.2 |
| 20260507135207 | 68 | 269 | 10.0 | 13.0 | 0.00 | 0.00 | 0.00 | 35 | 1011.1 |
| 20260507134707 | 68 | 302 | 5.0 | 6.0 | 0.00 | 0.00 | 0.00 | 35 | 1011.1 |
| 20260507134207 | 69 | 299 | 7.0 | 9.0 | 0.00 | 0.00 | 0.00 | 34 | 1011.1 |
| 20260507133707 | 69 | 306 | 6.0 | 8.0 | 0.00 | 0.00 | 0.00 | 34 | 1011.1 |
| 20260507132707 | 66 | 292 | 9.0 | 9.0 | 0.00 | 0.00 | 0.00 | 34 | 1011.1 |
| 20260507132207 | 65 | 298 | 7.0 | 9.0 | 0.00 | 0.00 | 0.00 | 35 | 1011.1 |
| 20260507131707 | 65 | 290 | 6.0 | 8.0 | 0.00 | 0.00 | 0.00 | 37 | 1011.2 |
| 20260507131207 | 66 | 303 | 7.0 | 9.0 | 0.00 | 0.00 | 0.00 | 36 | 1011.2 |
| 20260507125707 | 66 | 279 | 6.0 | 8.0 | 0.00 | 0.00 | 0.00 | 35 | 1011.2 |
| 20260507125207 | 67 | 277 | 6.0 | 7.0 | 0.00 | 0.00 | 0.00 | 34 | 1011.1 |
| 20260507123707 | 66 | 240 | 3.0 | 7.0 | 0.00 | 0.00 | 0.00 | 34 | 1011.1 |
| 20260507123207 | 66 | 234 | 7.0 | 9.0 | 0.00 | 0.00 | 0.00 | 34 | 1011.2 |
| 20260507122207 | 67 | 210 | 9.0 | 11.0 | 0.00 | 0.00 | 0.00 | 33 | 1011.3 |
| 20260507121707 | 67 | 273 | 6.0 | 9.0 | 0.00 | 0.00 | 0.00 | 34 | 1011.3 |
| 20260507120707 | 67 | 271 | 7.0 | 11.0 | 0.00 | 0.00 | 0.00 | 34 | 1011.2 |
| 20260507120207 | 68 | 277 | 4.0 | 7.0 | 0.00 | 0.00 | 0.00 | 35 | 1011.2 |
| 20260507115207 | 67 | 279 | 7.0 | 12.0 | 0.00 | 0.00 | 0.00 | 34 | 1011.1 |
| 20260507114707 | 67 | 281 | 8.0 | 11.0 | 0.00 | 0.00 | 0.00 | 34 | 1011.2 |
| 20260507113707 | 68 | 292 | 8.0 | 10.0 | 0.00 | 0.00 | 0.00 | 35 | 1011.2 |
| 20260507113207 | 67 | 231 | 10.0 | 12.0 | 0.00 | 0.00 | 0.00 | 33 | 1011.1 |
| 20260507112707 | 67 | 180 | 8.0 | 13.0 | 0.00 | 0.00 | 0.00 | 35 | 1011.2 |
| 20260507112207 | 68 | 196 | 5.0 | 10.0 | 0.00 | 0.00 | 0.00 | 36 | 1011.3 |
| 20260507111707 | 68 | 274 | 7.0 | 9.0 | 0.00 | 0.00 | 0.00 | 37 | 1011.3 |
| 20260507110707 | 69 | 265 | 4.0 | 7.0 | 0.00 | 0.00 | 0.00 | 37 | 1011.3 |
| 20260507104707 | 70 | 222 | 6.0 | 8.0 | 0.00 | 0.00 | 0.00 | 36 | 1011.3 |
| 20260507104207 | 71 | 215 | 13.0 | 16.0 | 0.00 | 0.00 | 0.00 | 34 | 1011.2 |
| 20260507103707 | 71 | 234 | 10.0 | 13.0 | 0.00 | 0.00 | 0.00 | 33 | 1011.3 |
| 20260507103207 | 71 | 256 | 5.0 | 10.0 | 0.00 | 0.00 | 0.00 | 34 | 1011.2 |
| 20260507102207 | 69 | 235 | 1.0 | 4.0 | 0.00 | 0.00 | 0.00 | 37 | 1011.3 |
| 20260507100207 | 68 | 242 | 9.0 | 10.0 | 0.00 | 0.00 | 0.00 | 37 | 1011.3 |
| 20260507095207 | 68 | 220 | 8.0 | 13.0 | 0.00 | 0.00 | 0.00 | 37 | 1011.2 |
| 20260507094707 | 68 | 270 | 5.0 | 9.0 | 0.00 | 0.00 | 0.00 | 40 | 1011.3 |
| 20260507094207 | 65 | 245 | 7.0 | 11.0 | 0.00 | 0.00 | 0.00 | 41 | 1011.2 |
| 20260507093707 | 65 | 269 | 3.0 | 4.0 | 0.00 | 0.00 | 0.00 | 43 | 1011.2 |
| 20260507093207 | 66 | 251 | 5.0 | 6.0 | 0.00 | 0.00 | 0.00 | 43 | 1011.2 |
| 20260507092707 | 66 | 218 | 9.0 | 10.0 | 0.00 | 0.00 | 0.00 | 40 | 1011.1 |
| 20260507092207 | 67 | 199 | 6.0 | 11.0 | 0.00 | 0.00 | 0.00 | 40 | 1011.2 |
| 20260507090707 | 66 | 233 | 7.0 | 8.0 | 0.00 | 0.00 | 0.00 | 43 | 1011.1 |
| 20260507085207 | 63 | 282 | 4.0 | 6.0 | 0.00 | 0.00 | 0.00 | 47 | 1011.0 |
| 20260507084207 | 63 | 282 | 7.0 | 9.0 | 0.00 | 0.00 | 0.00 | 46 | 1010.9 |
| 20260507083207 | 64 | 243 | 4.0 | 5.0 | 0.00 | 0.00 | 0.00 | 48 | 1010.8 |
| 20260507082707 | 64 | 251 | 5.0 | 7.0 | 0.00 | 0.00 | 0.00 | 46 | 1010.7 |
| 20260507080707 | 61 | 259 | 6.0 | 9.0 | 0.00 | 0.00 | 0.00 | 50 | 1010.6 |
| 20260507040940 | 49 | 287 | 2.0 | 5.0 | 0.00 | 0.00 | 0.00 | 67 | 1008.8 |
| 20260507040443 | 49 | 288 | 2.0 | 2.0 | 0.00 | 0.00 | 0.00 | 67 | 1008.7 |
| 20260507035943 | 48 | 288 | 1.0 | 2.0 | 0.00 | 0.00 | 0.00 | 67 | 1008.8 |
| 20260507035440 | 48 | 288 | 1.0 | 2.0 | 0.00 | 0.00 | 0.00 | 68 | 1008.7 |
| 20260507033440 | 48 | 288 | 0.0 | 0.0 | 0.00 | 0.00 | 0.00 | 64 | 1008.6 |
| 20260507031940 | 48 | 288 | 0.0 | 0.0 | 0.00 | 0.00 | 0.00 | 64 | 1008.5 |
| 20260507025940 | 49 | 288 | 0.0 | 0.0 | 0.00 | 0.00 | 0.00 | 64 | 1008.2 |
| 20260507025440 | 50 | 288 | 1.0 | 2.0 | 0.00 | 0.00 | 0.00 | 64 | 1008.1 |
| 20260507024940 | 50 | 288 | 1.0 | 2.0 | 0.00 | 0.00 | 0.00 | 63 | 1008.0 |
| 20260507024440 | 51 | 288 | 2.0 | 2.0 | 0.00 | 0.00 | 0.00 | 64 | 1008.0 |
| 20260507021942 | 51 | 288 | 2.0 | 4.0 | 0.00 | 0.00 | 0.00 | 65 | 1008.1 |
| 20260507020440 | 51 | 278 | 3.0 | 4.0 | 0.00 | 0.00 | 0.00 | 65 | 1007.9 |
| 20260507015940 | 51 | 278 | 5.0 | 6.0 | 0.00 | 0.00 | 0.00 | 65 | 1007.8 |
| 20260507015440 | 51 | 278 | 3.0 | 8.0 | 0.00 | 0.00 | 0.00 | 65 | 1007.6 |
| 20260507013940 | 51 | 286 | 4.0 | 6.0 | 0.00 | 0.00 | 0.00 | 64 | 1007.4 |
| 20260507013440 | 51 | 290 | 5.0 | 6.0 | 0.00 | 0.00 | 0.00 | 64 | 1007.5 |
| 20260507012440 | 52 | 290 | 4.0 | 6.0 | 0.00 | 0.00 | 0.00 | 64 | 1007.4 |
| 20260507011940 | 52 | 290 | 4.0 | 6.0 | 0.00 | 0.00 | 0.00 | 64 | 1007.4 |
| 20260507011440 | 52 | 291 | 5.0 | 6.0 | 0.00 | 0.00 | 0.00 | 64 | 1007.4 |
| 20260507010940 | 52 | 292 | 6.0 | 7.0 | 0.00 | 0.00 | 0.00 | 64 | 1007.3 |
| 20260507010440 | 52 | 288 | 6.0 | 8.0 | 0.00 | 0.00 | 0.00 | 65 | 1007.2 |
| 20260507005940 | 52 | 289 | 5.0 | 8.0 | 0.00 | 0.00 | 0.00 | 65 | 1007.1 |
| 20260507005440 | 52 | 284 | 6.0 | 9.0 | 0.00 | 0.00 | 0.00 | 65 | 1007.1 |
| 20260507004440 | 52 | 296 | 5.0 | 7.0 | 0.00 | 0.00 | 0.00 | 65 | 1006.9 |
| 20260507003440 | 52 | 304 | 7.0 | 10.0 | 0.00 | 0.00 | 0.00 | 66 | 1006.5 |
| 20260507001940 | 52 | 296 | 6.0 | 10.0 | 0.00 | 0.00 | 0.00 | 64 | 1006.7 |
| 20260507001440 | 52 | 293 | 6.0 | 7.0 | 0.00 | 0.00 | 0.00 | 63 | 1006.8 |
| 20260507000940 | 52 | 288 | 6.0 | 8.0 | 0.00 | 0.00 | 0.00 | 64 | 1006.8 |
| 20260507000442 | 52 | 288 | 6.0 | 8.0 | 0.00 | 0.00 | 0.00 | 64 | 1006.8 |
| 20260506234445 | 52 | 298 | 5.0 | 6.0 | 0.00 | 0.00 | 0.00 | 64 | 1006.6 |
| 20260506230940 | 53 | 330 | 6.0 | 7.0 | 0.00 | 0.00 | 0.00 | 63 | 1005.8 |
| 20260506224440 | 55 | 318 | 6.0 | 9.0 | 0.00 | 0.00 | 0.00 | 63 | 1005.3 |
| 20260506223940 | 55 | 312 | 9.0 | 11.0 | 0.00 | 0.00 | 0.00 | 63 | 1005.3 |
| 20260506223440 | 56 | 300 | 9.0 | 13.0 | 0.00 | 0.00 | 0.00 | 63 | 1005.4 |
| 20260506222940 | 56 | 309 | 13.0 | 15.0 | 0.00 | 0.00 | 0.00 | 62 | 1005.2 |
| 20260506222440 | 57 | 317 | 9.0 | 11.0 | 0.00 | 0.00 | 0.00 | 60 | 1005.0 |
| 20260506220940 | 57 | 257 | 2.0 | 3.0 | 0.00 | 0.00 | 0.00 | 55 | 1004.8 |
| 20260506220440 | 57 | 257 | 4.0 | 9.0 | 0.00 | 0.00 | 0.00 | 57 | 1004.8 |
| 20260506215940 | 57 | 164 | 6.0 | 7.0 | 0.00 | 0.00 | 0.00 | 57 | 1004.8 |
| 20260506215440 | 57 | 163 | 4.0 | 6.0 | 0.00 | 0.00 | 0.00 | 56 | 1004.8 |
| 20260506214940 | 57 | 164 | 7.0 | 10.0 | 0.00 | 0.00 | 0.00 | 57 | 1004.7 |
| 20260506214440 | 57 | 164 | 10.0 | 11.0 | 0.00 | 0.00 | 0.00 | 57 | 1004.7 |
| 20260506212440 | 58 | 136 | 8.0 | 12.0 | 0.00 | 0.00 | 0.00 | 57 | 1004.4 |
| 20260506211940 | 58 | 147 | 8.0 | 9.0 | 0.00 | 0.00 | 0.00 | 56 | 1004.4 |
| 20260506211440 | 58 | 149 | 7.0 | 8.0 | 0.00 | 0.00 | 0.00 | 55 | 1004.3 |
| 20260506210941 | 58 | 133 | 7.0 | 11.0 | 0.00 | 0.00 | 0.00 | 55 | 1004.1 |
| 20260506205940 | 58 | 128 | 10.0 | 11.0 | 0.00 | 0.00 | 0.00 | 56 | 1004.0 |
| 20260506205440 | 59 | 123 | 9.0 | 11.0 | 0.00 | 0.00 | 0.00 | 56 | 1003.9 |
| 20260506204940 | 59 | 126 | 9.0 | 12.0 | 0.00 | 0.00 | 0.00 | 56 | 1003.9 |
| 20260506203940 | 59 | 122 | 10.0 | 13.0 | 0.00 | 0.00 | 0.00 | 55 | 1003.9 |
| 20260506203440 | 59 | 120 | 11.0 | 12.0 | 0.00 | 0.00 | 0.00 | 54 | 1003.9 |
| 20260506202940 | 59 | 121 | 11.0 | 13.0 | 0.00 | 0.00 | 0.00 | 54 | 1003.9 |
| 20260506202440 | 60 | 129 | 11.0 | 13.0 | 0.00 | 0.00 | 0.00 | 54 | 1003.9 |
| 20260506200940 | 60 | 133 | 11.0 | 13.0 | 0.00 | 0.00 | 0.00 | 53 | 1004.0 |
| 20260506200440 | 60 | 129 | 11.0 | 13.0 | 0.00 | 0.00 | 0.00 | 53 | 1004.0 |
| 20260506195440 | 60 | 137 | 11.0 | 13.0 | 0.00 | 0.00 | 0.00 | 52 | 1003.9 |
| 20260506194940 | 60 | 132 | 9.0 | 11.0 | 0.00 | 0.00 | 0.00 | 52 | 1004.0 |
| 20260506193940 | 61 | 127 | 10.0 | 12.0 | 0.00 | 0.00 | 0.00 | 50 | 1003.8 |